Home   Weather   Lawrence   Past weeks

Flag for USA Past Weather in Lawrence, Kansas, USA — Yesterday and Last 2 Weeks

Now
25 °F

Overcast.


Feels Like: 17 °F
Forecast: 13 / 24 °F
Wind: 7 mph from Northwest

Location: Lawrence Municipal Airport

Current Time: Dec 7, 2016 at 6:33:58 pm

Latest Report: Dec 7, 2016 at 5:52 pm


Visibility: 10 mi

Pressure: 30.43 "Hg

Humidity: 72%

Dew Point: 17 °F

Location of LawrenceLocation

Past Weather in Lawrence — Graph

°F

Lawrence Temperature Yesterday

Maximum temperature yesterday: 39 °F (at 1:52 pm)
Minimum temperature yesterday: 24 °F (at 6:52 pm)
Average temperature yesterday: 32 °F

High & Low Weather Summary for the Past Weeks

 TemperatureHumidityPressure
High60 °F (Nov 22, 11:52 pm)100% (Nov 25, 9:52 pm)30.48 "Hg (Nov 25, 9:52 pm)
Low18 °F (Dec 2, 5:52 am)36% (Nov 28, 2:52 pm)29.16 "Hg (Nov 28, 12:52 pm)
Average40 °F77%30.00 "Hg
* Reported Nov 22 4:52 pm — Dec 7 4:52 pm, Lawrence, Weather by CustomWeather, © 2016

Note: Actual official high and low records may vary slightly from our data, if they occured in-between our weather recording intervals... More about our weather records

Advertising

Lawrence Weather History for the Previous 24 Hours

Scroll right to see more
 ConditionsComfort  
Time TempWeatherWind HumidityBarometerVisibility
4:52 pm
Wed, Dec 7
26 °FMostly cloudy.12 mph71%30.40 "Hg10 mi
3:52 pm27 °FPassing clouds.10 mph66%30.38 "Hg10 mi
2:52 pm26 °FMostly cloudy.13 mph77%30.38 "Hg9 mi
1:52 pm26 °FOvercast.15 mph81%30.36 "Hg4 mi
12:59 pm26 °FLight snow. Ice fog.14 mph88%30.33 "Hg2 mi
11:52 am26 °FLight snow. Ice fog.13 mph92%30.37 "Hg1 mi
11:02 am27 °FLight snow. Mostly cloudy.12 mph75%30.34 "Hg1 mi
10:56 am27 °FLight snow. Mostly cloudy.12 mph72%30.35 "Hg2 mi
9:52 am29 °FOvercast.10 mph58%30.34 "Hg10 mi
8:52 am28 °FMostly cloudy.8 mph58%30.31 "Hg10 mi
7:52 am28 °FOvercast.5 mph58%30.28 "Hg10 mi
6:52 am29 °FOvercast.5 mph56%30.24 "Hg10 mi
5:52 am30 °FOvercast.5 mph51%30.21 "Hg10 mi
4:52 am30 °FMostly cloudy.6 mph51%30.19 "Hg10 mi
3:52 am30 °FOvercast.6 mph49%30.21 "Hg10 mi
2:52 am32 °FOvercast.3 mph43%30.24 "Hg10 mi
1:52 am31 °FOvercast.15 mph57%30.19 "Hg10 mi
11:52 pm
Tue, Dec 6
27 °FOvercast.6 mph85%30.19 "Hg10 mi
10:52 pm27 °FPassing clouds.5 mph78%30.17 "Hg10 mi
9:52 pm26 °FClear.3 mph77%30.17 "Hg10 mi
8:52 pm24 °FClear.9 mph88%30.16 "Hg10 mi
7:52 pm25 °FClear.No wind85%30.18 "Hg10 mi
6:52 pm24 °FClear.No wind77%30.16 "Hg10 mi
Weather by CustomWeather, © 2016

See weather overviewHow to use our weather pages